Year,Month,Day,Hour,Minute,Value (Times are PST for temperature in C)
2019,03,20,00,00,11.20
2019,03,20,00,01,11.20
2019,03,20,00,02,11.20
2019,03,20,00,03,11.20
2019,03,20,00,04,11.20
2019,03,20,00,05,11.20
2019,03,20,00,06,11.20
2019,03,20,00,07,11.30
2019,03,20,00,08,11.20
2019,03,20,00,09,11.20
2019,03,20,00,10,11.20
2019,03,20,00,11,11.20
2019,03,20,00,12,11.20
2019,03,20,00,13,11.20
2019,03,20,00,14,11.20
2019,03,20,00,15,11.20
2019,03,20,00,16,11.20
2019,03,20,00,17,11.20
2019,03,20,00,18,11.30
2019,03,20,00,19,11.30
2019,03,20,00,20,11.30
2019,03,20,00,21,11.30
2019,03,20,00,22,11.30
2019,03,20,00,23,11.30
2019,03,20,00,24,11.40
2019,03,20,00,25,11.40
2019,03,20,00,26,11.40
2019,03,20,00,27,11.50
2019,03,20,00,28,11.50
2019,03,20,00,29,11.50
2019,03,20,00,30,11.50
2019,03,20,00,31,11.50
2019,03,20,00,32,11.60
2019,03,20,00,33,11.60
2019,03,20,00,34,11.60
2019,03,20,00,35,11.70
2019,03,20,00,36,11.70
2019,03,20,00,37,11.70
2019,03,20,00,38,11.70
2019,03,20,00,39,11.70
2019,03,20,00,40,11.80
2019,03,20,00,41,11.80
2019,03,20,00,42,11.80
2019,03,20,00,43,11.80
2019,03,20,00,44,11.90
2019,03,20,00,45,11.90
2019,03,20,00,46,11.90
2019,03,20,00,47,11.90
2019,03,20,00,48,12.00
2019,03,20,00,49,12.00
2019,03,20,00,50,12.00
2019,03,20,00,51,12.00
2019,03,20,00,52,12.10
2019,03,20,00,53,12.10
2019,03,20,00,54,12.10
2019,03,20,00,55,12.10
2019,03,20,00,56,12.10
2019,03,20,00,57,12.10
2019,03,20,00,58,12.00
2019,03,20,00,59,12.00
2019,03,20,01,00,12.00
2019,03,20,01,01,12.00
2019,03,20,01,02,11.90
2019,03,20,01,03,11.90
2019,03,20,01,04,11.90
2019,03,20,01,05,11.90
2019,03,20,01,06,11.90
2019,03,20,01,07,11.90
2019,03,20,01,08,11.90
2019,03,20,01,09,11.80
2019,03,20,01,10,11.80
2019,03,20,01,11,11.80
2019,03,20,01,12,11.80
2019,03,20,01,13,11.80
2019,03,20,01,14,11.80
2019,03,20,01,15,11.80
2019,03,20,01,16,11.80
2019,03,20,01,17,11.70
2019,03,20,01,18,11.60
2019,03,20,01,19,11.60
2019,03,20,01,20,11.60
2019,03,20,01,21,11.60
2019,03,20,01,22,11.70
2019,03,20,01,23,11.70
2019,03,20,01,24,11.70
2019,03,20,01,25,11.70
2019,03,20,01,26,11.70
2019,03,20,01,27,11.70
2019,03,20,01,28,11.60
2019,03,20,01,29,11.60
2019,03,20,01,30,11.60
2019,03,20,01,31,11.60
2019,03,20,01,32,11.60
2019,03,20,01,33,11.60
2019,03,20,01,34,11.60
2019,03,20,01,35,11.60
2019,03,20,01,36,11.60
2019,03,20,01,37,11.60
2019,03,20,01,38,11.70
2019,03,20,01,39,11.80
2019,03,20,01,40,11.80
2019,03,20,01,41,11.90
2019,03,20,01,42,11.90
2019,03,20,01,43,11.90
2019,03,20,01,44,11.90
2019,03,20,01,45,11.80
2019,03,20,01,46,11.80
2019,03,20,01,47,11.80
2019,03,20,01,48,11.90
2019,03,20,01,49,11.90
2019,03,20,01,50,11.90
2019,03,20,01,51,11.90
2019,03,20,01,52,11.90
2019,03,20,01,53,11.80
2019,03,20,01,54,11.80
2019,03,20,01,55,11.70
2019,03,20,01,56,11.70
2019,03,20,01,57,11.70
2019,03,20,01,58,11.70
2019,03,20,01,59,11.70
2019,03,20,02,00,11.70
2019,03,20,02,01,11.70
2019,03,20,02,02,11.70
2019,03,20,02,03,11.70
2019,03,20,02,04,11.70
2019,03,20,02,05,11.70
2019,03,20,02,06,11.60
2019,03,20,02,07,11.40
2019,03,20,02,08,11.30
2019,03,20,02,09,11.20
2019,03,20,02,10,11.20
2019,03,20,02,11,11.20
2019,03,20,02,12,11.20
2019,03,20,02,13,11.30
2019,03,20,02,14,11.40
2019,03,20,02,15,11.40
2019,03,20,02,16,11.40
2019,03,20,02,17,11.40
2019,03,20,02,18,11.40
2019,03,20,02,19,11.30
2019,03,20,02,20,11.20
2019,03,20,02,21,11.20
2019,03,20,02,22,11.20
2019,03,20,02,23,11.30
2019,03,20,02,24,11.30
2019,03,20,02,25,11.40
2019,03,20,02,26,11.40
2019,03,20,02,27,11.40
2019,03,20,02,28,11.40
2019,03,20,02,29,11.30
2019,03,20,02,30,11.30
2019,03,20,02,31,11.30
2019,03,20,02,32,11.30
2019,03,20,02,33,11.30
2019,03,20,02,34,11.20
2019,03,20,02,35,11.10
2019,03,20,02,36,11.00
2019,03,20,02,37,10.90
2019,03,20,02,38,10.90
2019,03,20,02,39,10.90
2019,03,20,02,40,10.90
2019,03,20,02,41,10.80
2019,03,20,02,42,10.60
2019,03,20,02,43,10.50
2019,03,20,02,44,10.30
2019,03,20,02,45,10.30
2019,03,20,02,46,10.30
2019,03,20,02,47,10.30
2019,03,20,02,48,10.30
2019,03,20,02,49,10.50
2019,03,20,02,50,10.60
2019,03,20,02,51,10.60
2019,03,20,02,52,10.50
2019,03,20,02,53,10.40
2019,03,20,02,54,10.30
2019,03,20,02,55,10.20
2019,03,20,02,56,10.20
2019,03,20,02,57,10.10
2019,03,20,02,58,9.90
2019,03,20,02,59,9.70
2019,03,20,03,00,9.50
2019,03,20,03,01,9.40
2019,03,20,03,02,9.30
2019,03,20,03,03,9.40
2019,03,20,03,04,9.50
2019,03,20,03,05,9.60
2019,03,20,03,06,9.80
2019,03,20,03,07,9.90
2019,03,20,03,08,10.00
2019,03,20,03,09,10.10
2019,03,20,03,10,10.20
2019,03,20,03,11,10.30
2019,03,20,03,12,10.30
2019,03,20,03,13,10.40
2019,03,20,03,14,10.50
2019,03,20,03,15,10.50
2019,03,20,03,16,10.60
2019,03,20,03,17,10.60
2019,03,20,03,18,10.70
2019,03,20,03,19,10.70
2019,03,20,03,20,10.70
2019,03,20,03,21,10.70
2019,03,20,03,22,10.70
2019,03,20,03,23,10.70
2019,03,20,03,24,10.70
2019,03,20,03,25,10.60
2019,03,20,03,26,10.60
2019,03,20,03,27,10.60
2019,03,20,03,28,10.60
2019,03,20,03,29,10.60
2019,03,20,03,30,10.50
2019,03,20,03,31,10.50
2019,03,20,03,32,10.50
2019,03,20,03,33,10.50
2019,03,20,03,34,10.40
2019,03,20,03,35,10.40
2019,03,20,03,36,10.40
2019,03,20,03,37,10.40
2019,03,20,03,38,10.40
2019,03,20,03,39,10.40
2019,03,20,03,40,10.40
2019,03,20,03,41,10.30
2019,03,20,03,42,10.30
2019,03,20,03,43,10.30
2019,03,20,03,44,10.30
2019,03,20,03,45,10.30
2019,03,20,03,46,10.30
2019,03,20,03,47,10.30
2019,03,20,03,48,10.20
2019,03,20,03,49,10.20
2019,03,20,03,50,10.10
2019,03,20,03,51,10.00
2019,03,20,03,52,9.90
2019,03,20,03,53,9.80
2019,03,20,03,54,9.80
2019,03,20,03,55,9.70
2019,03,20,03,56,9.60
2019,03,20,03,57,9.50
2019,03,20,03,58,9.40
2019,03,20,03,59,9.30
2019,03,20,04,00,9.20
2019,03,20,04,01,9.10
2019,03,20,04,02,8.90
2019,03,20,04,03,8.80
2019,03,20,04,04,8.70
2019,03,20,04,05,8.70
2019,03,20,04,06,8.70
2019,03,20,04,07,8.70
2019,03,20,04,08,8.70
2019,03,20,04,09,8.80
2019,03,20,04,10,8.80
2019,03,20,04,11,8.90
2019,03,20,04,12,8.90
2019,03,20,04,13,8.90
2019,03,20,04,14,8.80
2019,03,20,04,15,8.80
2019,03,20,04,16,8.90
2019,03,20,04,17,9.00
2019,03,20,04,18,9.10
2019,03,20,04,19,9.20
2019,03,20,04,20,9.30
2019,03,20,04,21,9.40
2019,03,20,04,22,9.50
2019,03,20,04,23,9.60
2019,03,20,04,24,9.70
2019,03,20,04,25,9.70
2019,03,20,04,26,9.80
2019,03,20,04,27,9.90
2019,03,20,04,28,10.00
2019,03,20,04,29,10.00
2019,03,20,04,30,10.00
2019,03,20,04,31,10.10
2019,03,20,04,32,10.10
2019,03,20,04,33,10.10
2019,03,20,04,34,10.10
2019,03,20,04,35,10.10
2019,03,20,04,36,10.10
2019,03,20,04,37,10.20
2019,03,20,04,38,10.20
2019,03,20,04,39,10.20
2019,03,20,04,40,10.20
2019,03,20,04,41,10.20
2019,03,20,04,42,10.20
2019,03,20,04,43,10.30
2019,03,20,04,44,10.30
2019,03,20,04,45,10.30
2019,03,20,04,46,10.40
2019,03,20,04,47,10.40
2019,03,20,04,48,10.40
2019,03,20,04,49,10.40
2019,03,20,04,50,10.30
2019,03,20,04,51,10.30
2019,03,20,04,52,10.30
2019,03,20,04,53,10.20
2019,03,20,04,54,10.20
2019,03,20,04,55,10.10
2019,03,20,04,56,10.10
2019,03,20,04,57,10.00
2019,03,20,04,58,10.00
2019,03,20,04,59,9.90
2019,03,20,05,00,9.80
2019,03,20,05,01,9.80
2019,03,20,05,02,9.70
2019,03,20,05,03,9.70
2019,03,20,05,04,9.60
2019,03,20,05,05,9.60
2019,03,20,05,06,9.60
2019,03,20,05,07,9.50
2019,03,20,05,08,9.40
2019,03,20,05,09,9.40
2019,03,20,05,10,9.40
2019,03,20,05,11,9.40
2019,03,20,05,12,9.40
2019,03,20,05,13,9.30
2019,03,20,05,14,9.30
2019,03,20,05,15,9.30
2019,03,20,05,16,9.30
2019,03,20,05,17,9.30
2019,03,20,05,18,9.30
2019,03,20,05,19,9.20
2019,03,20,05,20,9.20
2019,03,20,05,21,9.10
2019,03,20,05,22,9.00
2019,03,20,05,23,8.90
2019,03,20,05,24,8.80
2019,03,20,05,25,8.80
2019,03,20,05,26,8.70
2019,03,20,05,27,8.60
2019,03,20,05,28,8.60
2019,03,20,05,29,8.50
2019,03,20,05,30,8.50
2019,03,20,05,31,8.50
2019,03,20,05,32,8.60
2019,03,20,05,33,8.60
2019,03,20,05,34,8.60
2019,03,20,05,35,8.60
2019,03,20,05,36,8.60
2019,03,20,05,37,8.70
2019,03,20,05,38,8.70
2019,03,20,05,39,8.70
2019,03,20,05,40,8.70
2019,03,20,05,41,8.70
2019,03,20,05,42,8.70
2019,03,20,05,43,8.60
2019,03,20,05,44,8.60
2019,03,20,05,45,8.60
2019,03,20,05,46,8.50
2019,03,20,05,47,8.50
2019,03,20,05,48,8.50
2019,03,20,05,49,8.50
2019,03,20,05,50,8.60
2019,03,20,05,51,8.60
2019,03,20,05,52,8.60
2019,03,20,05,53,8.60
2019,03,20,05,54,8.50
2019,03,20,05,55,8.50
2019,03,20,05,56,8.40
2019,03,20,05,57,8.40
2019,03,20,05,58,8.40
2019,03,20,05,59,8.40
2019,03,20,06,00,8.50
2019,03,20,06,01,8.50
2019,03,20,06,02,8.60
2019,03,20,06,03,8.60
2019,03,20,06,04,8.60
2019,03,20,06,05,8.60
2019,03,20,06,06,8.60
2019,03,20,06,07,8.60
2019,03,20,06,08,8.60
2019,03,20,06,09,8.60
2019,03,20,06,10,8.60
2019,03,20,06,11,8.70
2019,03,20,06,12,8.70
2019,03,20,06,13,8.80
2019,03,20,06,14,8.90
2019,03,20,06,15,9.00
2019,03,20,06,16,9.00
2019,03,20,06,17,9.00
2019,03,20,06,18,9.00
2019,03,20,06,19,8.90
2019,03,20,06,20,8.90
2019,03,20,06,21,8.90
2019,03,20,06,22,8.90
2019,03,20,06,23,8.80
2019,03,20,06,24,8.70
2019,03,20,06,25,8.60
2019,03,20,06,26,8.60
2019,03,20,06,27,8.50
2019,03,20,06,28,8.60
2019,03,20,06,29,8.60
2019,03,20,06,30,8.60
2019,03,20,06,31,8.60
2019,03,20,06,32,8.70
2019,03,20,06,33,8.70
2019,03,20,06,34,8.70
2019,03,20,06,35,8.70
2019,03,20,06,36,8.80
2019,03,20,06,37,8.80
2019,03,20,06,38,8.80
2019,03,20,06,39,8.80
2019,03,20,06,40,8.80
2019,03,20,06,41,8.70
2019,03,20,06,42,8.60
2019,03,20,06,43,8.60
2019,03,20,06,44,8.50
2019,03,20,06,45,8.40
2019,03,20,06,46,8.40
2019,03,20,06,47,8.30
2019,03,20,06,48,8.30
2019,03,20,06,49,8.30
2019,03,20,06,50,8.30
2019,03,20,06,51,8.30
2019,03,20,06,52,8.30
2019,03,20,06,53,8.30
2019,03,20,06,54,8.40
2019,03,20,06,55,8.40
2019,03,20,06,56,8.40
2019,03,20,06,57,8.40
2019,03,20,06,58,8.40
2019,03,20,06,59,8.40
2019,03,20,07,00,8.40
2019,03,20,07,01,8.40
2019,03,20,07,02,8.40
2019,03,20,07,03,8.40
2019,03,20,07,04,8.30
2019,03,20,07,05,8.30
2019,03,20,07,06,8.30
2019,03,20,07,07,8.30
2019,03,20,07,08,8.20
2019,03,20,07,09,8.20
2019,03,20,07,10,8.20
2019,03,20,07,11,8.20
2019,03,20,07,12,8.10
2019,03,20,07,13,8.10
2019,03,20,07,14,8.10
2019,03,20,07,15,8.00
2019,03,20,07,16,8.00
2019,03,20,07,17,8.00
2019,03,20,07,18,7.90
2019,03,20,07,19,7.90
2019,03,20,07,20,7.90
2019,03,20,07,21,7.90
2019,03,20,07,22,7.90
2019,03,20,07,23,7.90
2019,03,20,07,24,7.90
2019,03,20,07,25,7.80
2019,03,20,07,26,7.80
2019,03,20,07,27,7.70
2019,03,20,07,28,7.70
2019,03,20,07,29,7.70
2019,03,20,07,30,7.60
2019,03,20,07,31,7.60
2019,03,20,07,32,7.60
2019,03,20,07,33,7.60
2019,03,20,07,34,7.60
2019,03,20,07,35,7.60
2019,03,20,07,36,7.60
2019,03,20,07,37,7.70
2019,03,20,07,38,7.70
2019,03,20,07,39,7.70
2019,03,20,07,40,7.70
2019,03,20,07,41,7.70
2019,03,20,07,42,7.70
2019,03,20,07,43,7.80
2019,03,20,07,44,7.80
2019,03,20,07,45,7.80
2019,03,20,07,46,7.80
2019,03,20,07,47,7.80
2019,03,20,07,48,7.80
2019,03,20,07,49,7.90
2019,03,20,07,50,7.90
2019,03,20,07,51,7.90
2019,03,20,07,52,8.00
2019,03,20,07,53,8.00
2019,03,20,07,54,8.00
2019,03,20,07,55,8.10
2019,03,20,07,56,8.10
2019,03,20,07,57,8.20
2019,03,20,07,58,8.20
2019,03,20,07,59,8.30
2019,03,20,08,00,8.30
2019,03,20,08,01,8.40
2019,03,20,08,02,8.40
2019,03,20,08,03,8.40
2019,03,20,08,04,8.50
2019,03,20,08,05,8.60
2019,03,20,08,06,8.60
2019,03,20,08,07,8.60
2019,03,20,08,08,8.70
2019,03,20,08,09,8.70
2019,03,20,08,10,8.70
2019,03,20,08,11,8.80
2019,03,20,08,12,8.90
2019,03,20,08,13,9.00
2019,03,20,08,14,9.10
2019,03,20,08,15,9.10
2019,03,20,08,16,9.20
2019,03,20,08,17,9.20
2019,03,20,08,18,9.30
2019,03,20,08,19,9.30
2019,03,20,08,20,9.30
2019,03,20,08,21,9.30
2019,03,20,08,22,9.30
2019,03,20,08,23,9.30
2019,03,20,08,24,9.30
2019,03,20,08,25,9.30
2019,03,20,08,26,9.40
2019,03,20,08,27,9.40
2019,03,20,08,28,9.40
2019,03,20,08,29,9.40
2019,03,20,08,30,9.40
2019,03,20,08,31,9.40
2019,03,20,08,32,9.40
2019,03,20,08,33,9.40
2019,03,20,08,34,9.40
2019,03,20,08,35,9.40
2019,03,20,08,36,9.40
2019,03,20,08,37,9.40
2019,03,20,08,38,9.50
2019,03,20,08,39,9.50
2019,03,20,08,40,9.50
2019,03,20,08,41,9.60
2019,03,20,08,42,9.60
2019,03,20,08,43,9.60
2019,03,20,08,44,9.60
2019,03,20,08,45,9.60
2019,03,20,08,46,9.70
2019,03,20,08,47,9.70
2019,03,20,08,48,9.70
2019,03,20,08,49,9.80
2019,03,20,08,50,9.80
2019,03,20,08,51,9.80
2019,03,20,08,52,9.80
2019,03,20,08,53,9.80
2019,03,20,08,54,9.90
2019,03,20,08,55,9.90
2019,03,20,08,56,9.90
2019,03,20,08,57,9.90
2019,03,20,08,58,10.00
2019,03,20,08,59,10.00
2019,03,20,09,00,10.00
2019,03,20,09,01,10.10
2019,03,20,09,02,10.10
2019,03,20,09,03,10.10
2019,03,20,09,04,10.10
2019,03,20,09,05,10.10
2019,03,20,09,06,10.10
2019,03,20,09,07,10.10
2019,03,20,09,08,10.10
2019,03,20,09,09,10.10
2019,03,20,09,10,10.10
2019,03,20,09,11,10.10
2019,03,20,09,12,10.10
2019,03,20,09,13,10.20
2019,03,20,09,14,10.20
2019,03,20,09,15,10.20
2019,03,20,09,16,10.20
2019,03,20,09,17,10.20
2019,03,20,09,18,10.20
2019,03,20,09,19,10.10
2019,03,20,09,20,10.10
2019,03,20,09,21,10.10
2019,03,20,09,22,10.00
2019,03,20,09,23,10.00
2019,03,20,09,24,9.90
2019,03,20,09,25,9.90
2019,03,20,09,26,9.90
2019,03,20,09,27,9.90
2019,03,20,09,28,9.90
2019,03,20,09,29,9.90
2019,03,20,09,30,9.90
2019,03,20,09,31,9.90
2019,03,20,09,32,9.90
2019,03,20,09,33,9.90
2019,03,20,09,34,9.90
2019,03,20,09,35,10.00
2019,03,20,09,36,10.00
2019,03,20,09,37,10.00
2019,03,20,09,38,10.00
2019,03,20,09,39,10.00
2019,03,20,09,40,10.00
2019,03,20,09,41,10.00
2019,03,20,09,42,9.90
2019,03,20,09,43,9.90
2019,03,20,09,44,9.80
2019,03,20,09,45,9.80
2019,03,20,09,46,9.80
2019,03,20,09,47,9.80
2019,03,20,09,48,9.70
2019,03,20,09,49,9.70
2019,03,20,09,50,9.70
2019,03,20,09,51,9.60
2019,03,20,09,52,9.60
2019,03,20,09,53,9.60
2019,03,20,09,54,9.60
2019,03,20,09,55,9.60
2019,03,20,09,56,9.70
2019,03,20,09,57,9.70
2019,03,20,09,58,9.70
2019,03,20,09,59,9.70
2019,03,20,10,00,9.70
2019,03,20,10,01,9.70
2019,03,20,10,02,9.80
2019,03,20,10,03,9.80
2019,03,20,10,04,9.80
2019,03,20,10,05,9.90
2019,03,20,10,06,9.90
2019,03,20,10,07,10.00
2019,03,20,10,08,10.10
2019,03,20,10,09,10.20
2019,03,20,10,10,10.30
2019,03,20,10,11,10.30
2019,03,20,10,12,10.40
2019,03,20,10,13,10.50
2019,03,20,10,14,10.50
2019,03,20,10,15,10.60
2019,03,20,10,16,10.60
2019,03,20,10,17,10.70
2019,03,20,10,18,10.70
2019,03,20,10,19,10.80
2019,03,20,10,20,10.80
2019,03,20,10,21,10.80
2019,03,20,10,22,10.80
2019,03,20,10,23,10.80
2019,03,20,10,24,10.90
2019,03,20,10,25,10.90
2019,03,20,10,26,11.00
2019,03,20,10,27,11.00
2019,03,20,10,28,11.10
2019,03,20,10,29,11.10
2019,03,20,10,30,11.10
2019,03,20,10,31,11.10
2019,03,20,10,32,11.10
2019,03,20,10,33,11.10
2019,03,20,10,34,11.10
2019,03,20,10,35,11.10
2019,03,20,10,36,11.10
2019,03,20,10,37,11.10
2019,03,20,10,38,11.10
2019,03,20,10,39,11.10
2019,03,20,10,40,11.10
2019,03,20,10,41,11.10
2019,03,20,10,42,11.10
2019,03,20,10,43,11.10
2019,03,20,10,44,11.10
2019,03,20,10,45,11.20
2019,03,20,10,46,11.20
2019,03,20,10,47,11.30
2019,03,20,10,48,11.30
2019,03,20,10,49,11.30
2019,03,20,10,50,11.30
2019,03,20,10,51,11.30
2019,03,20,10,52,11.30
2019,03,20,10,53,11.30
2019,03,20,10,54,11.30
2019,03,20,10,55,11.40
2019,03,20,10,56,11.40
2019,03,20,10,57,11.40
2019,03,20,10,58,11.50
2019,03,20,10,59,11.50
2019,03,20,11,00,11.50
2019,03,20,11,01,11.50
2019,03,20,11,02,11.60
2019,03,20,11,03,11.60
2019,03,20,11,04,11.60
2019,03,20,11,05,11.70
2019,03,20,11,06,11.70
2019,03,20,11,07,11.70
2019,03,20,11,08,11.70
2019,03,20,11,09,11.80
2019,03,20,11,10,11.80
2019,03,20,11,11,11.90
2019,03,20,11,12,11.90
2019,03,20,11,13,11.90
2019,03,20,11,14,11.90
2019,03,20,11,15,11.90
2019,03,20,11,16,12.00
2019,03,20,11,17,12.00
2019,03,20,11,18,11.90
2019,03,20,11,19,12.00
2019,03,20,11,20,12.00
2019,03,20,11,21,12.00
2019,03,20,11,22,12.00
2019,03,20,11,23,12.00
2019,03,20,11,24,12.00
2019,03,20,11,25,11.90
2019,03,20,11,26,11.90
2019,03,20,11,27,11.90
2019,03,20,11,28,11.90
2019,03,20,11,29,11.90
2019,03,20,11,30,12.00
2019,03,20,11,31,11.90
2019,03,20,11,32,11.90
2019,03,20,11,33,11.90
2019,03,20,11,34,11.90
2019,03,20,11,35,11.80
2019,03,20,11,36,11.80
2019,03,20,11,37,11.80
2019,03,20,11,38,11.80
2019,03,20,11,39,11.80
2019,03,20,11,40,11.80
2019,03,20,11,41,11.80
2019,03,20,11,42,11.80
2019,03,20,11,43,11.80
2019,03,20,11,44,11.80
2019,03,20,11,45,11.80
2019,03,20,11,46,11.90
2019,03,20,11,47,11.90
2019,03,20,11,48,12.00
2019,03,20,11,49,12.00
2019,03,20,11,50,12.10
2019,03,20,11,51,12.10
2019,03,20,11,52,12.10
2019,03,20,11,53,12.20
2019,03,20,11,54,12.20
2019,03,20,11,55,12.30
2019,03,20,11,56,12.50
2019,03,20,11,57,12.60
2019,03,20,11,58,12.70
2019,03,20,11,59,12.70
2019,03,20,12,00,12.70
2019,03,20,12,01,12.70
2019,03,20,12,02,12.70
2019,03,20,12,03,12.70
2019,03,20,12,04,12.60
2019,03,20,12,05,12.60
2019,03,20,12,06,12.60
2019,03,20,12,07,12.60
2019,03,20,12,08,12.60
2019,03,20,12,09,12.60
2019,03,20,12,10,12.70
2019,03,20,12,11,12.70
2019,03,20,12,12,12.80
2019,03,20,12,13,12.90
2019,03,20,12,14,13.00
2019,03,20,12,15,13.10
2019,03,20,12,16,13.10
2019,03,20,12,17,13.20
2019,03,20,12,18,13.10
2019,03,20,12,19,13.10
2019,03,20,12,20,13.10
2019,03,20,12,21,13.20
2019,03,20,12,22,13.20
2019,03,20,12,23,13.20
2019,03,20,12,24,13.20
2019,03,20,12,25,13.20
2019,03,20,12,26,13.30
2019,03,20,12,27,13.30
2019,03,20,12,28,13.30
2019,03,20,12,29,13.20
2019,03,20,12,30,13.20
2019,03,20,12,31,13.10
2019,03,20,12,32,13.00
2019,03,20,12,33,13.00
2019,03,20,12,34,13.10
2019,03,20,12,35,13.20
2019,03,20,12,36,13.30
2019,03,20,12,37,13.40
2019,03,20,12,38,13.30
2019,03,20,12,39,13.20
2019,03,20,12,40,13.20
2019,03,20,12,41,13.10
2019,03,20,12,42,13.10
2019,03,20,12,43,13.10
2019,03,20,12,44,13.10
2019,03,20,12,45,13.10
2019,03,20,12,46,13.20
2019,03,20,12,47,13.30
2019,03,20,12,48,13.30
2019,03,20,12,49,13.30
2019,03,20,12,50,13.30
2019,03,20,12,51,13.40
2019,03,20,12,52,13.40
2019,03,20,12,53,13.50
2019,03,20,12,54,13.50
2019,03,20,12,55,13.50
2019,03,20,12,56,13.60
2019,03,20,12,57,13.70
2019,03,20,12,58,13.70
2019,03,20,12,59,13.80
2019,03,20,13,00,13.80
2019,03,20,13,01,13.90
2019,03,20,13,02,14.00
2019,03,20,13,03,14.10
2019,03,20,13,04,14.10
2019,03,20,13,05,14.10
2019,03,20,13,06,14.10
2019,03,20,13,07,14.10
2019,03,20,13,08,14.10
2019,03,20,13,09,14.10
2019,03,20,13,10,14.10
2019,03,20,13,11,14.10
2019,03,20,13,12,14.10
2019,03,20,13,13,14.00
2019,03,20,13,14,14.00
2019,03,20,13,15,14.00
2019,03,20,13,16,14.10
2019,03,20,13,17,14.10
2019,03,20,13,18,14.10
2019,03,20,13,19,14.20
2019,03,20,13,20,14.30
2019,03,20,13,21,14.30
2019,03,20,13,22,14.30
2019,03,20,13,23,14.30
2019,03,20,13,24,14.20
2019,03,20,13,25,14.20
2019,03,20,13,26,14.10
2019,03,20,13,27,14.10
2019,03,20,13,28,14.00
2019,03,20,13,29,13.90
2019,03,20,13,30,13.90
2019,03,20,13,31,13.80
2019,03,20,13,32,13.80
2019,03,20,13,33,13.80
2019,03,20,13,34,13.80
2019,03,20,13,35,13.70
2019,03,20,13,36,13.60
2019,03,20,13,37,13.60
2019,03,20,13,38,13.50
2019,03,20,13,39,13.60
2019,03,20,13,40,13.60
2019,03,20,13,41,13.60
2019,03,20,13,42,13.60
2019,03,20,13,43,13.70
2019,03,20,13,44,13.70
2019,03,20,13,45,13.80
2019,03,20,13,46,13.80
2019,03,20,13,47,13.90
2019,03,20,13,48,13.90
2019,03,20,13,49,13.90
2019,03,20,13,50,13.90
2019,03,20,13,51,13.90
2019,03,20,13,52,13.90
2019,03,20,13,53,13.90
2019,03,20,13,54,13.90
2019,03,20,13,55,13.90
2019,03,20,13,56,13.90
2019,03,20,13,57,13.90
2019,03,20,13,58,14.00
2019,03,20,13,59,14.00
2019,03,20,14,00,14.00
2019,03,20,14,01,14.10
2019,03,20,14,02,14.10
2019,03,20,14,03,14.10
2019,03,20,14,04,14.10
2019,03,20,14,05,14.20
2019,03,20,14,06,14.20
2019,03,20,14,07,14.20
2019,03,20,14,08,14.20
2019,03,20,14,09,14.20
2019,03,20,14,10,14.20
2019,03,20,14,11,14.20
2019,03,20,14,12,14.20
2019,03,20,14,13,14.10
2019,03,20,14,14,14.10
2019,03,20,14,15,14.20
2019,03,20,14,16,14.20
2019,03,20,14,17,14.20
2019,03,20,14,18,14.20
2019,03,20,14,19,14.20
2019,03,20,14,20,14.30
2019,03,20,14,21,14.30
2019,03,20,14,22,14.30
2019,03,20,14,23,14.30
2019,03,20,14,24,14.30
2019,03,20,14,25,14.30
2019,03,20,14,26,14.30
2019,03,20,14,27,14.30
2019,03,20,14,28,14.30
2019,03,20,14,29,14.30
2019,03,20,14,30,14.40
2019,03,20,14,31,14.40
2019,03,20,14,32,14.50
2019,03,20,14,33,14.60
2019,03,20,14,34,14.60
2019,03,20,14,35,14.70
2019,03,20,14,36,14.70
2019,03,20,14,37,14.70
2019,03,20,14,38,14.70
2019,03,20,14,39,14.70
2019,03,20,14,40,14.70
2019,03,20,14,41,14.70
2019,03,20,14,42,14.70
2019,03,20,14,43,14.70
2019,03,20,14,44,14.70
2019,03,20,14,45,14.70
2019,03,20,14,46,14.70
2019,03,20,14,47,14.70
2019,03,20,14,48,14.70
2019,03,20,14,49,14.80
2019,03,20,14,50,14.90
2019,03,20,14,51,14.90
2019,03,20,14,52,15.00
2019,03,20,14,53,15.00
2019,03,20,14,54,15.00
2019,03,20,14,55,15.00
2019,03,20,14,56,15.00
2019,03,20,14,57,15.00
2019,03,20,14,58,15.00
2019,03,20,14,59,15.00
2019,03,20,15,00,15.00
2019,03,20,15,01,15.00
2019,03,20,15,02,15.00
2019,03,20,15,03,15.00
2019,03,20,15,04,15.00
2019,03,20,15,05,15.00
2019,03,20,15,06,15.00
2019,03,20,15,07,15.10
2019,03,20,15,08,15.10
2019,03,20,15,09,15.10
2019,03,20,15,10,15.10
2019,03,20,15,11,15.20
2019,03,20,15,12,15.20
2019,03,20,15,13,15.30
2019,03,20,15,14,15.30
2019,03,20,15,15,15.30
2019,03,20,15,16,15.40
2019,03,20,15,17,15.40
2019,03,20,15,18,15.40
2019,03,20,15,19,15.40
2019,03,20,15,20,15.40
2019,03,20,15,21,15.40
2019,03,20,15,22,15.50
2019,03,20,15,23,15.60
2019,03,20,15,24,15.60
2019,03,20,15,25,15.60
2019,03,20,15,26,15.60
2019,03,20,15,27,15.60
2019,03,20,15,28,15.60
2019,03,20,15,29,15.60
2019,03,20,15,30,15.60
2019,03,20,15,31,15.60
2019,03,20,15,32,15.60
2019,03,20,15,33,15.50
2019,03,20,15,34,15.40
2019,03,20,15,35,15.40
2019,03,20,15,36,15.40
2019,03,20,15,37,15.40
2019,03,20,15,38,15.40
2019,03,20,15,39,15.40
2019,03,20,15,40,15.50
2019,03,20,15,41,15.50
2019,03,20,15,42,15.60
2019,03,20,15,43,15.70
2019,03,20,15,44,15.80
2019,03,20,15,45,15.90
2019,03,20,15,46,16.00
2019,03,20,15,47,16.10
2019,03,20,15,48,16.20
2019,03,20,15,49,16.20
2019,03,20,15,50,16.30
2019,03,20,15,51,16.30
2019,03,20,15,52,16.30
2019,03,20,15,53,16.20
2019,03,20,15,54,16.20
2019,03,20,15,55,16.20
2019,03,20,15,56,16.20
2019,03,20,15,57,16.20
2019,03,20,15,58,16.20
2019,03,20,15,59,16.20
2019,03,20,16,00,16.30
2019,03,20,16,01,16.30
2019,03,20,16,02,16.20
2019,03,20,16,03,16.20
2019,03,20,16,04,16.20
2019,03,20,16,05,16.20
2019,03,20,16,06,16.20
2019,03,20,16,07,16.20
2019,03,20,16,08,16.30
2019,03,20,16,09,16.40
2019,03,20,16,10,16.50
2019,03,20,16,11,16.50
2019,03,20,16,12,16.60
2019,03,20,16,13,16.70
2019,03,20,16,14,16.80
2019,03,20,16,15,16.80
2019,03,20,16,16,16.90
2019,03,20,16,17,17.00
2019,03,20,16,18,17.00
2019,03,20,16,19,17.00
2019,03,20,16,20,17.10
2019,03,20,16,21,17.10
2019,03,20,16,22,17.10
2019,03,20,16,23,17.20
2019,03,20,16,24,17.20
2019,03,20,16,25,17.30
2019,03,20,16,26,17.30
2019,03,20,16,27,17.40
2019,03,20,16,28,17.40
2019,03,20,16,29,17.40
2019,03,20,16,30,17.40
2019,03,20,16,31,17.50
2019,03,20,16,32,17.50
2019,03,20,16,33,17.60
2019,03,20,16,34,17.60
2019,03,20,16,35,17.50
2019,03,20,16,36,17.40
2019,03,20,16,37,17.30
2019,03,20,16,38,17.30
2019,03,20,16,39,17.20
2019,03,20,16,40,17.20
2019,03,20,16,41,17.10
2019,03,20,16,42,17.10
2019,03,20,16,43,17.10
2019,03,20,16,44,17.10
2019,03,20,16,45,17.10
2019,03,20,16,46,17.10
2019,03,20,16,47,17.20
2019,03,20,16,48,17.10
2019,03,20,16,49,17.10
2019,03,20,16,50,17.00
2019,03,20,16,51,17.00
2019,03,20,16,52,17.00
2019,03,20,16,53,17.00
2019,03,20,16,54,17.10
2019,03,20,16,55,17.10
2019,03,20,16,56,17.10
2019,03,20,16,57,17.20
2019,03,20,16,58,17.20
2019,03,20,16,59,17.30
2019,03,20,17,00,17.40
2019,03,20,17,01,17.40
2019,03,20,17,02,17.40
2019,03,20,17,03,17.40
2019,03,20,17,04,17.40
2019,03,20,17,05,17.50
2019,03,20,17,06,17.50
2019,03,20,17,07,17.50
2019,03,20,17,08,17.50
2019,03,20,17,09,17.60
2019,03,20,17,10,17.60
2019,03,20,17,11,17.60
2019,03,20,17,12,17.60
2019,03,20,17,13,17.50
2019,03,20,17,14,17.50
2019,03,20,17,15,17.60
2019,03,20,17,16,17.60
2019,03,20,17,17,17.60
2019,03,20,17,18,17.60
2019,03,20,17,19,17.60
2019,03,20,17,20,17.60
2019,03,20,17,21,17.70
2019,03,20,17,22,17.70
2019,03,20,17,23,17.70
2019,03,20,17,24,17.70
2019,03,20,17,25,17.80
2019,03,20,17,26,17.80
2019,03,20,17,27,17.80
2019,03,20,17,28,17.90
2019,03,20,17,29,17.90
2019,03,20,17,30,17.90
2019,03,20,17,31,18.00
2019,03,20,17,32,18.00
2019,03,20,17,33,18.00